16:58
Airports
History
Links
Donate
Help keep this website running!
PayPal
Bitcoin
This page is community maintained. The information is intended for PC simulator navigation or reference.
Always use approved charts for navigation.
SNYP
Chacara Paraiso
Chacara Paraiso (SNYP)
Benevides, Para, Brazil (68795)
(U)
Lat/Lng:1° 19' 4" S / 48° 17' 56" W
-1.317778 / -48.298889
Elevation:69'ft / 21mMSL
ID / ICAO:SNYP
Runways:1
Longest:12-30
Asphalt 966m / 3,168ft
Nearby Weather16:00 GMT 2018-01-16
Nearby weather at SBBE, Val De Caes Intl located 13.0 nautical miles from SNYP
Altimeter: 29.85
Visibility: 6.2 statute miles
Wind: 9 knots (from 070°)
Temp: 32°c / 90°f
Humidity: 55.6%

METAR: SBBE 161600Z 07009KT 9999 BKN030 32/22 Q1011

(Powered by phpweather)
Runway 12 / 30
Dimensions:965.6 x 18m 3168' x 59'ft
Surface:Asphalt
Runway 12 [A]Runway 30 [B]
Heading:100°TH 280°TH
Lat:
Lng:
1° 19' 1.29"S
48° 18' 11.32"W
1° 19' 6.71"S
48° 17' 40.68"W
User Notes and Comments
1° 19' 4" S / 48° 17' 56" W
Distance To
Airport ID:
Nearby Airports
4 Norte Jet 3.0 NM
SJNR ENE 75°
4 Haras Fazendas Reunidas Sobral 6.4 NM
SSWL ENE 68°
4 Portal do Ceu 9.0 NM
SIPC W 271°
(U) Clube de Esp. Aereos e Nauticos do Par 9.7 NM
SJNA WNW 291°
(C) Val De Caes Intl 13.0 NM
SBBE ( WX ) WSW 250°
(C) Julio Cesar 13.0 NM
SBJC WSW 239°
(U) SOURE 45.4 NM
SNSW NNW 340°
VFR Chart
Flight Planning at SkyVector.com